ITUPSAT 1

Last updated on Sat Feb 09 2019 03:03:27 GMT+0000 (Coordinated Universal Time)

1 35935U 09051E 19039.18094111 .00000043 00000-0 21106-4 0 9998 2 35935 98.5850 203.3817 0007665 208.7270 151.3505 14.55502395497656
UTC large
Height (km)
Speed (km/s)
/
Latitude / Longitude
Inclination (degrees)
Orbital Period (minutes)
Azimuth
Elevation
Range (km)
Doppler Factor

Next 0 passes for location: London (51.5072 / 0.1276)

Sorry there are no passes over London.